STARLINK-31870, 59787

Orbit data source: Space-Track

STARLINK-31870, 59787 is a payload satellite owned by SpaceX/Seattle (US) in LEO that was launched on Sat, 18 May 2024 UTC via an FALCON 9 launch vehicle from the Air Force Eastern Test Range (AFETR). Payload-class satellites include a variety of spacecraft equipped with specific instruments for various scientific and technological missions. These include communications satellites like Starlink; space stations such as the ISS; scientific satellites like the Hubble; Earth observation satellites from companies like Planet Labs, Umbra, and HawkEye 360; GPS; miniature CubeSats for education and research; and military/defense satellites.

Loading next visibility...
Identifier
59787, 2024-093F
Orbit
LEO
Last TLE update
21 hours ago
Origin
Manufacturer
SpaceX/Seattle
Mission
Operational spacecraft
Bus & Motor
STARLINK V2M, Unknown motor
Mass
730 kg wet, ~700 kg dry
Launch date (UTC)
2024-05-18 (1 year ago)
Launch vehicle
FALCON 9
Launch site
Air Force Eastern Test Range (AFETR)
Object type
Payload
Rocket body
Debris
Shape & HBR
Unknown
Radar Cross Section
Large (>1 m²)

Expand to show TLE details & history

TLE from 21 hours ago
0 STARLINK-31870
1 59787U 24093F   25191.26133306  .00000247  00000-0  18487-4 0  9991
2 59787  43.0016 137.6161 0001333 266.2175  93.8524 15.27580666 65622
Epoch: 2025-07-10T06:16Z
TLE epoch observation values (Epoch: 2025-07-10T06:16:19.176Z)
Latitude
-0.00003°
Longitude
115.10601°
Altitude
482.884 km
Speed
7.626 km/s
True Right ascension
09h 10m 27s
True Declination
0° 00' 00"
Sunlit
Object was in daylight at epoch
Visualization orbit readout
Latitude
27.61859°
Longitude
144.1728°
Altitude
483.855 km
Speed
7.627 km/s
Apparent Right ascension
07h 49m 29s
Apparent Declination
-9° 10' 52"
Sunlit
Object is in daylight
Visualization observer readout
Local Sidereal Time
15:08:06
Azimuth
275.571° WNW
Elevation
-20.919°
Doppler factor
1
Orbital elements
Apogee altitude
485.907 km
Perigee altitude
484.077 km
Semi-major axis
6,863.129 km
Eccentricity
0.00013
Inclination
43.0016°
RAAN
137.6161°
Arg. of periapsis
266.2175°
True anomaly
Unknown
Mean anomaly
93.8524°
Eccentric anomaly
Unknown
Mean motion
3.81733 °/min
Orbital period
94.31 mins
BSTAR
0.000018487
Loading maneuver chart data...
Loading SW <> Apogee altitude chart data...
Loading historical data...
Loading historical data...
Loading historical data...
Loading historical data...
Loading historical data...
Loading historical data...
Loading historical data...

STARLINK-31870 Visibility forecast

Observer location: undefined°, undefined°

Span
Click to sort rows by Start time (UTC) header in descending order
Start Az.
Max El. time (UTC)
Max El. Az.
Max El.
End time (UTC)
End Az.
6 mins2025-07-11 03:02:28.797Z289.883° WNW2025-07-11 03:05:28.797Z8.495° NNE38.966°2025-07-11 03:08:28.797Z81.724° E
5 mins2025-07-11 04:42:28.797Z279.645° WNW2025-07-11 04:44:28.797Z203.522° SW42.636°2025-07-11 04:47:28.797Z122.152° SE
5 mins2025-07-11 23:17:28.797Z208.56° SW2025-07-11 23:19:28.797Z157.281° SSE31.362°2025-07-11 23:22:28.797Z86.256° E
5 mins2025-07-12 00:56:28.797Z270.021° WNW2025-07-12 00:58:28.797Z346.782° N42.618°2025-07-12 01:01:28.797Z69.006° E
5 mins2025-07-12 02:35:28.797Z294.644° NW2025-07-12 02:37:28.797Z350.279° N38.516°2025-07-12 02:40:28.797Z79.939° E
|